Home   Weather   Vaughan   Past weeks

Flag for Canada Past Weather in Vaughan, Ontario, Canada — Yesterday and Last 2 Weeks

Now
66 °F

Scattered clouds.


Feels Like: 66 °F
Forecast: 58 / 62 °F
Wind: 14 mph from East

Location: Toronto Buttonville

Current Time: Sep 28, 2016 at 8:09:58 PM

Latest Report: Sep 28, 2016 at 7:00 PM


Visibility: 15 mi

Pressure: 30.11 "Hg

Humidity: 56%

Dew Point: 50 °F

Location of VaughanLocation

Past Weather in Vaughan — Graph

°F

Vaughan Temperature Yesterday

Maximum temperature yesterday: 68 °F (at 12:00 PM)
Minimum temperature yesterday: 45 °F (at 7:00 AM)
Average temperature yesterday: 59 °F

High & Low Weather Summary for the Past Weeks

 TemperatureHumidityPressure
High82 °F (Sep 20, 2:00 PM)100% (Sep 18, 5:45 AM)30.38 "Hg (Sep 18, 5:45 AM)
Low43 °F (Sep 25, 6:00 AM)22% (Sep 20, 6:00 PM)29.74 "Hg (Sep 27, 3:00 PM)
Average64 °F68%30.08 "Hg
* Reported Sep 13 6:00 PM — Sep 28 6:00 PM, Vaughan, Weather by CustomWeather, © 2016

Note: Actual official high and low records may vary slightly from our data, if they occured in-between our weather recording intervals... More about our weather records

Advertising

Vaughan Weather History for the Previous 24 Hours

Scroll right to see more
 ConditionsComfort  
Time TempWeatherWind HumidityBarometerVisibility
6:00 PM
Wed, Sep 28
70 °FScattered clouds.18 mph40%30.09 "Hg15 mi
5:00 PM70 °FPartly sunny.13 mph40%30.07 "Hg15 mi
4:00 PM70 °FOvercast.13 mph43%30.07 "Hg15 mi
3:00 PM70 °FPartly sunny.16 mph46%30.06 "Hg15 mi
2:00 PM70 °FPartly sunny.12 mph46%30.06 "Hg15 mi
1:00 PM68 °FPartly sunny.12 mph49%30.06 "Hg15 mi
12:00 PM70 °FPartly sunny.9 mph46%30.05 "Hg15 mi
11:00 AM66 °FPartly sunny.9 mph64%30.03 "Hg15 mi
10:00 AM63 °FPartly sunny.7 mph68%30.01 "Hg15 mi
9:00 AM59 °FPartly sunny.7 mph77%29.99 "Hg15 mi
8:00 AM57 °FPartly sunny.6 mph82%29.98 "Hg15 mi
7:00 AM54 °FPartly cloudy.7 mph88%29.96 "Hg15 mi
6:00 AM54 °FPassing clouds.No wind88%29.94 "Hg15 mi
5:00 AM55 °FPartly cloudy.2 mph82%29.92 "Hg15 mi
4:00 AM54 °FPassing clouds.2 mph82%29.91 "Hg15 mi
3:00 AM54 °FPassing clouds.3 mph82%29.90 "Hg15 mi
2:00 AM54 °FPassing clouds.2 mph72%29.90 "Hg15 mi
1:00 AM54 °FPassing clouds.2 mph72%29.88 "Hg15 mi
12:00 AM54 °FPassing clouds.3 mph67%29.87 "Hg15 mi
11:00 PM
Tue, Sep 27
55 °FPassing clouds.3 mph59%29.86 "Hg15 mi
10:00 PM57 °FPassing clouds.No wind55%29.84 "Hg15 mi
9:00 PM61 °FPassing clouds.5 mph42%29.83 "Hg15 mi
8:00 PM61 °FPassing clouds.6 mph45%29.81 "Hg15 mi
Weather by CustomWeather, © 2016

See weather overviewHow to use our weather pages